TimeAKST,TemperatureF,Dew PointF,Humidity,Sea Level PressureIn,VisibilityMPH,Wind Direction,Wind SpeedMPH,Gust SpeedMPH,PrecipitationIn,Events,Conditions,WindDirDegrees,DateUTC
12:53 AM,-23.1,-27.9,78,30.01,10.0,Calm,Calm,-,N/A,,Clear,0,2013-01-25 09:53:00
1:53 AM,-17.0,-24.0,70,30.01,10.0,NE,3.5,-,N/A,,Clear,40,2013-01-25 10:53:00
3:53 AM,-27.0,-33.0,73,30.02,10.0,Calm,Calm,-,N/A,,Clear,0,2013-01-25 12:53:00
4:53 AM,-27.9,-33.0,77,30.01,10.0,Calm,Calm,-,N/A,,Clear,0,2013-01-25 13:53:00
5:53 AM,-29.0,-35.0,73,30.03,10.0,Calm,Calm,-,N/A,,Clear,0,2013-01-25 14:53:00
6:53 AM,-31.0,-9999,N/A,30.03,10.0,Calm,Calm,-,N/A,,Clear,0,2013-01-25 15:53:00
7:53 AM,-31.0,-9999,N/A,30.03,10.0,Calm,Calm,-,N/A,,Clear,0,2013-01-25 16:53:00
8:53 AM,-33.0,-9999,N/A,30.03,10.0,Calm,Calm,-,N/A,,Clear,0,2013-01-25 17:53:00
9:53 AM,-35.0,-9999,N/A,30.04,10.0,Calm,Calm,-,N/A,,Clear,0,2013-01-25 18:53:00
10:53 AM,-34.1,-9999,N/A,30.04,10.0,Calm,Calm,-,N/A,,Clear,0,2013-01-25 19:53:00
11:53 AM,-29.0,-36.0,69,30.05,10.0,Calm,Calm,-,N/A,,Clear,0,2013-01-25 20:53:00
12:53 PM,-23.1,-29.0,74,30.06,10.0,Calm,Calm,-,N/A,,Clear,0,2013-01-25 21:53:00
1:53 PM,-20.0,-27.0,70,30.05,10.0,Calm,Calm,-,N/A,,Clear,0,2013-01-25 22:53:00
2:53 PM,-16.1,-23.1,71,30.05,10.0,Calm,Calm,-,N/A,,Clear,0,2013-01-25 23:53:00
3:53 PM,-14.1,-22.0,68,30.05,10.0,SE,3.5,-,N/A,,Clear,140,2013-01-26 00:53:00
4:53 PM,-20.9,-27.0,73,30.06,10.0,Calm,Calm,-,N/A,,Clear,0,2013-01-26 01:53:00
5:53 PM,-27.0,-32.1,77,30.07,10.0,Calm,Calm,-,N/A,,Clear,0,2013-01-26 02:53:00
6:53 PM,-27.9,-34.1,73,30.08,10.0,Calm,Calm,-,N/A,,Clear,0,2013-01-26 03:53:00
7:53 PM,-31.0,-9999,N/A,30.09,10.0,Calm,Calm,-,N/A,,Clear,0,2013-01-26 04:53:00
8:53 PM,-34.1,-9999,N/A,30.09,10.0,Calm,Calm,-,N/A,,Clear,0,2013-01-26 05:53:00
9:53 PM,-35.0,-9999,N/A,30.09,10.0,Calm,Calm,-,N/A,,Clear,0,2013-01-26 06:53:00
10:53 PM,-36.0,-9999,N/A,30.10,10.0,Calm,Calm,-,N/A,,Clear,0,2013-01-26 07:53:00
11:53 PM,-36.0,-9999,N/A,30.11,10.0,Calm,Calm,-,N/A,,Clear,0,2013-01-26 08:53:00